DTA702 FNLU-MUHA

Flight info

Callsign DTA702
Flight time N/A
Altitude 32000
Route VNA DCT OPAPO DCT 0735S01000E 0630S00500E/N0497F340 0530S00000E DCT EMTAL DCT 0430S00500W 04S010W 0334S01209W 03S015W 02S020W DCT ASDOK DCT 0056S02447W/N0488F360 DCT BUTAP UL695 ARUSI/N0483F320 CR13 BISUK/N0482F380 UL695 ANU UG633 GABAR G633 COY RTE4 BQN DCT AQABA M348 KATOK UM348 PTA/N0477F400 UM596 POBIN UL212 UCL KAVUL5B
Aircraft B77W/H-SDE1E2E3FGHIJ2J3J4J5M1RWXY/LB1D1

Departure

Time 2026-05-09 01:47
Airport Quatro de Fevereiro International Airport (FNLU)

Arrival

Time N/A
Airport José Martí International Airport (MUHA)
Time Latitude Longitude Altitude Speed Heading
2026-05-09 01:47 -8.81015 13.02040 6745 ft 286 kts 304°
2026-05-09 01:47 -8.79890 13.00354 7240 ft 291 kts 304°
2026-05-09 01:47 -8.78760 12.98651 7866 ft 292 kts 304°
2026-05-09 01:48 -8.77989 12.97490 8227 ft 296 kts 304°
2026-05-09 01:48 -8.76851 12.95772 8773 ft 299 kts 304°
2026-05-09 01:48 -8.75690 12.94015 9374 ft 301 kts 304°
2026-05-09 01:48 -8.74525 12.92250 9944 ft 303 kts 304°
2026-05-09 01:49 -8.73340 12.90455 10379 ft 312 kts 304°
2026-05-09 01:49 -8.72093 12.88566 10513 ft 332 kts 304°
2026-05-09 01:49 -8.70772 12.86565 10674 ft 352 kts 304°
2026-05-09 01:49 -8.69371 12.84446 10820 ft 372 kts 304°
2026-05-09 01:50 -8.67907 12.82231 11130 ft 385 kts 304°
2026-05-09 01:50 -8.66405 12.79955 11658 ft 393 kts 304°
2026-05-09 01:50 -8.64878 12.77644 12269 ft 398 kts 304°
2026-05-09 01:50 -8.63335 12.75307 13019 ft 401 kts 303°
2026-05-09 01:51 -8.61807 12.72989 13802 ft 402 kts 303°
2026-05-09 01:51 -8.60250 12.70629 14448 ft 405 kts 304°
2026-05-09 01:51 -8.58658 12.68216 15031 ft 410 kts 304°
2026-05-09 01:51 -8.57094 12.65843 15631 ft 413 kts 304°
2026-05-09 01:52 -8.55493 12.63421 16242 ft 416 kts 304°
2026-05-09 01:52 -8.53876 12.60974 16840 ft 420 kts 304°
2026-05-09 01:52 -8.52246 12.58509 17424 ft 424 kts 304°
2026-05-09 01:52 -8.50597 12.56017 17991 ft 428 kts 304°
2026-05-09 01:53 -8.48933 12.53501 18536 ft 431 kts 304°
2026-05-09 01:53 -8.47261 12.50971 19045 ft 434 kts 304°
2026-05-09 01:53 -8.45596 12.48452 19559 ft 436 kts 304°
2026-05-09 01:53 -8.43885 12.45864 20062 ft 439 kts 304°
2026-05-09 01:54 -8.42200 12.43319 20546 ft 442 kts 304°
2026-05-09 01:54 -8.40481 12.40720 21037 ft 445 kts 304°
2026-05-09 01:54 -8.38756 12.38112 21495 ft 448 kts 304°
2026-05-09 01:54 -8.37016 12.35483 21962 ft 451 kts 304°
2026-05-09 01:55 -8.35265 12.32837 22413 ft 454 kts 303°
2026-05-09 01:55 -8.33505 12.30180 22858 ft 457 kts 303°
2026-05-09 01:55 -8.31735 12.27507 23287 ft 459 kts 303°
2026-05-09 01:55 -8.29953 12.24817 23662 ft 462 kts 303°
2026-05-09 01:56 -8.28158 12.22108 24024 ft 464 kts 303°
2026-05-09 01:56 -8.26359 12.19393 24392 ft 466 kts 303°
2026-05-09 01:56 -8.24553 12.16669 24756 ft 468 kts 303°
2026-05-09 01:56 -8.22761 12.13972 25122 ft 469 kts 303°
2026-05-09 01:57 -8.20938 12.11235 25500 ft 470 kts 303°
2026-05-09 01:57 -8.19110 12.08484 25881 ft 471 kts 302°
2026-05-09 01:57 -8.17293 12.05717 26240 ft 473 kts 302°
2026-05-09 01:57 -8.15467 12.02948 26478 ft 478 kts 303°
2026-05-09 01:58 -8.13601 12.00139 26644 ft 484 kts 303°
2026-05-09 01:58 -8.11716 11.97306 26936 ft 486 kts 303°
2026-05-09 01:58 -8.09829 11.94467 27322 ft 486 kts 303°
2026-05-09 01:58 -8.07947 11.91636 27674 ft 487 kts 303°
2026-05-09 01:59 -8.06054 11.88785 27990 ft 489 kts 303°
2026-05-09 01:59 -8.04155 11.85926 28254 ft 492 kts 303°
2026-05-09 01:59 -8.02245 11.83052 28520 ft 494 kts 303°
2026-05-09 01:59 -8.00326 11.80163 28795 ft 496 kts 303°
2026-05-09 02:00 -7.98402 11.77267 29067 ft 497 kts 303°
2026-05-09 02:00 -7.96474 11.74367 29363 ft 498 kts 303°
2026-05-09 02:00 -7.94569 11.71501 29716 ft 497 kts 303°
2026-05-09 02:00 -7.92643 11.68604 30100 ft 496 kts 302°
2026-05-09 02:01 -7.90722 11.65716 30438 ft 494 kts 302°
2026-05-09 02:01 -7.88801 11.62827 30760 ft 494 kts 302°
2026-05-09 02:01 -7.86888 11.59951 31050 ft 494 kts 302°
2026-05-09 02:01 -7.84977 11.57079 31372 ft 493 kts 302°
2026-05-09 02:02 -7.83078 11.54207 31695 ft 492 kts 301°
2026-05-09 02:02 -7.81439 11.51186 31854 ft 493 kts 292°
2026-05-09 02:02 -7.79329 11.44619 31918 ft 495 kts 279°
2026-05-09 02:03 -7.78351 11.37733 31935 ft 498 kts 277°
2026-05-09 02:03 -7.77421 11.30845 31940 ft 499 kts 277°
2026-05-09 02:04 -7.76445 11.23927 31937 ft 498 kts 277°
2026-05-09 02:04 -7.75446 11.17026 31939 ft 497 kts 277°
2026-05-09 02:05 -7.74442 11.10133 31936 ft 495 kts 277°
2026-05-09 02:05 -7.73443 11.03271 31936 ft 494 kts 277°
2026-05-09 02:06 -7.72446 10.96421 31934 ft 494 kts 277°
2026-05-09 02:07 -7.70954 10.86179 31942 ft 494 kts 277°
2026-05-09 02:07 -7.69955 10.79330 31934 ft 494 kts 277°
2026-05-09 02:08 -7.68953 10.72469 31935 ft 494 kts 277°
2026-05-09 02:08 -7.67949 10.65603 31938 ft 495 kts 277°
2026-05-09 02:09 -7.66943 10.58733 31939 ft 495 kts 277°
2026-05-09 02:09 -7.65937 10.51866 31938 ft 495 kts 277°
2026-05-09 02:10 -7.64935 10.45038 31940 ft 495 kts 277°
2026-05-09 02:10 -7.63924 10.38159 31939 ft 495 kts 277°
2026-05-09 02:11 -7.62911 10.31263 32256 ft 497 kts 277°
2026-05-09 02:11 -7.62405 10.27826 32572 ft 495 kts 277°
2026-05-09 02:11 -7.61900 10.24403 32903 ft 493 kts 277°
2026-05-09 02:11 -7.61398 10.20993 33215 ft 491 kts 277°
2026-05-09 02:12 -7.60896 10.17592 33502 ft 490 kts 277°
2026-05-09 02:12 -7.60395 10.14194 33742 ft 490 kts 277°
2026-05-09 02:12 -7.59893 10.10788 33865 ft 491 kts 277°
2026-05-09 02:13 -7.58893 10.04015 33934 ft 492 kts 277°
2026-05-09 02:13 -7.57769 9.97227 33940 ft 490 kts 280°
2026-05-09 02:14 -7.56351 9.90512 33945 ft 489 kts 281°
2026-05-09 02:14 -7.54902 9.83815 33949 ft 489 kts 281°
2026-05-09 02:15 -7.53467 9.77103 33946 ft 490 kts 281°
2026-05-09 02:15 -7.52044 9.70383 33947 ft 491 kts 280°
2026-05-09 02:16 -7.50628 9.63676 33949 ft 492 kts 280°
2026-05-09 02:16 -7.49198 9.56915 33946 ft 494 kts 281°
2026-05-09 02:17 -7.47761 9.50127 33945 ft 495 kts 280°
2026-05-09 02:17 -7.46323 9.43345 33947 ft 496 kts 280°
2026-05-09 02:18 -7.44881 9.36546 33943 ft 496 kts 281°
2026-05-09 02:18 -7.43447 9.29790 33948 ft 496 kts 281°
2026-05-09 02:19 -7.42004 9.22999 33949 ft 496 kts 281°
2026-05-09 02:19 -7.40560 9.16210 33944 ft 495 kts 281°
2026-05-09 02:20 -7.39118 9.09433 33945 ft 495 kts 280°
2026-05-09 02:20 -7.37674 9.02654 33951 ft 494 kts 281°
2026-05-09 02:21 -7.36230 8.95875 33947 ft 495 kts 280°
2026-05-09 02:21 -7.34785 8.89102 33947 ft 495 kts 280°
2026-05-09 02:22 -7.33347 8.82361 33947 ft 495 kts 281°
2026-05-09 02:22 -7.31896 8.75569 33949 ft 496 kts 281°
2026-05-09 02:23 -7.30443 8.68773 33949 ft 496 kts 280°
2026-05-09 02:23 -7.28990 8.61983 33949 ft 497 kts 281°
2026-05-09 02:24 -7.27533 8.55177 33948 ft 497 kts 281°
2026-05-09 02:24 -7.26074 8.48366 33950 ft 497 kts 281°
2026-05-09 02:25 -7.24622 8.41594 33945 ft 497 kts 281°
2026-05-09 02:25 -7.23160 8.34784 33951 ft 497 kts 280°
2026-05-09 02:26 -7.21698 8.27976 33947 ft 497 kts 281°
2026-05-09 02:26 -7.20236 8.21175 33948 ft 497 kts 280°
2026-05-09 02:27 -7.18771 8.14364 33951 ft 497 kts 280°
2026-05-09 02:27 -7.17308 8.07564 33947 ft 497 kts 281°
2026-05-09 02:28 -7.15842 8.00757 33949 ft 497 kts 281°
2026-05-09 02:28 -7.14384 7.93994 33942 ft 498 kts 281°
2026-05-09 02:29 -7.12915 7.87181 33952 ft 498 kts 281°
2026-05-09 02:29 -7.11440 7.80350 33951 ft 499 kts 281°
2026-05-09 02:30 -7.09961 7.73505 33954 ft 500 kts 280°
2026-05-09 02:30 -7.08481 7.66661 33957 ft 501 kts 281°
2026-05-09 02:31 -7.06999 7.59812 33951 ft 501 kts 280°
2026-05-09 02:31 -7.05516 7.52962 33950 ft 501 kts 280°
2026-05-09 02:32 -7.04032 7.46114 33947 ft 501 kts 280°
2026-05-09 02:32 -7.02548 7.39269 33952 ft 500 kts 281°
2026-05-09 02:33 -7.01061 7.32415 33954 ft 500 kts 281°
2026-05-09 02:33 -6.99574 7.25571 33950 ft 500 kts 281°
2026-05-09 02:34 -6.98088 7.18730 33951 ft 500 kts 280°
2026-05-09 02:34 -6.96602 7.11898 33953 ft 500 kts 281°
2026-05-09 02:35 -6.95124 7.05108 33950 ft 500 kts 281°
2026-05-09 02:35 -6.93637 6.98279 33953 ft 500 kts 281°
2026-05-09 02:36 -6.92147 6.91442 33955 ft 500 kts 280°
2026-05-09 02:36 -6.90657 6.84610 33955 ft 500 kts 281°
2026-05-09 02:37 -6.89415 6.78920 33959 ft 500 kts 281°
2026-05-09 02:37 -6.87920 6.72075 33954 ft 500 kts 281°
2026-05-09 02:38 -6.86426 6.65239 33952 ft 500 kts 281°
2026-05-09 02:38 -6.84932 6.58405 33955 ft 500 kts 281°
2026-05-09 02:39 -6.83434 6.51562 33955 ft 500 kts 281°
2026-05-09 02:39 -6.81937 6.44727 33951 ft 500 kts 281°
2026-05-09 02:40 -6.80448 6.37932 33959 ft 500 kts 281°
2026-05-09 02:40 -6.78947 6.31089 33952 ft 501 kts 281°
2026-05-09 02:41 -6.77446 6.24245 33958 ft 501 kts 281°
2026-05-09 02:41 -6.75938 6.17378 33959 ft 502 kts 281°
2026-05-09 02:42 -6.74429 6.10515 33951 ft 503 kts 281°
2026-05-09 02:42 -6.72917 6.03639 33955 ft 503 kts 281°
2026-05-09 02:43 -6.71414 5.96810 33958 ft 503 kts 281°
2026-05-09 02:43 -6.69902 5.89947 33949 ft 499 kts 281°
2026-05-09 02:44 -6.68432 5.83232 33954 ft 485 kts 282°
2026-05-09 02:44 -6.66997 5.76678 33956 ft 474 kts 281°
2026-05-09 02:45 -6.65588 5.70269 33943 ft 464 kts 281°
2026-05-09 02:45 -6.64206 5.64000 33943 ft 454 kts 282°
2026-05-09 02:46 -6.62849 5.57861 33948 ft 443 kts 281°
2026-05-09 02:46 -6.61531 5.51908 33940 ft 434 kts 281°
2026-05-09 02:47 -6.60236 5.46055 33952 ft 423 kts 282°
2026-05-09 02:47 -6.58972 5.40347 33933 ft 412 kts 281°
2026-05-09 02:48 -6.57743 5.34806 33909 ft 400 kts 281°
2026-05-09 02:48 -6.57140 5.32081 33729 ft 399 kts 281°
2026-05-09 02:48 -6.56537 5.29356 33500 ft 399 kts 282°
2026-05-09 02:48 -6.55936 5.26648 33381 ft 395 kts 281°
2026-05-09 02:49 -6.55346 5.23991 33247 ft 393 kts 282°
2026-05-09 02:49 -6.54749 5.21308 33049 ft 392 kts 281°
2026-05-09 02:49 -6.54157 5.18643 32866 ft 391 kts 282°
2026-05-09 02:49 -6.53565 5.15979 32714 ft 388 kts 282°
2026-05-09 02:50 -6.52978 5.13335 32562 ft 387 kts 282°
2026-05-09 02:50 -6.52390 5.10693 32365 ft 386 kts 281°
2026-05-09 02:50 -6.51804 5.08060 32202 ft 385 kts 282°
2026-05-09 02:50 -6.51219 5.05440 32058 ft 383 kts 282°
2026-05-09 02:51 -6.50638 5.02827 31902 ft 381 kts 282°
2026-05-09 02:51 -6.50064 5.00236 31767 ft 380 kts 282°
2026-05-09 02:51 -6.49508 4.97632 31560 ft 379 kts 280°
2026-05-09 02:51 -6.49002 4.95037 31427 ft 377 kts 279°
2026-05-09 02:52 -6.48512 4.92450 31275 ft 376 kts 279°
2026-05-09 02:52 -6.48023 4.89865 31071 ft 376 kts 280°
2026-05-09 02:52 -6.47533 4.87293 30967 ft 373 kts 280°
2026-05-09 02:52 -6.47040 4.84729 30817 ft 373 kts 279°
2026-05-09 02:53 -6.46554 4.82211 30670 ft 371 kts 280°
2026-05-09 02:53 -6.46059 4.79660 30513 ft 370 kts 280°
2026-05-09 02:53 -6.45564 4.77118 30364 ft 369 kts 280°
2026-05-09 02:53 -6.45070 4.74584 30250 ft 367 kts 281°
2026-05-09 02:54 -6.44578 4.72064 30083 ft 367 kts 279°
2026-05-09 02:54 -6.44084 4.69542 29899 ft 367 kts 279°
2026-05-09 02:54 -6.43592 4.67016 29652 ft 368 kts 280°
2026-05-09 02:55 -6.42617 4.62034 29456 ft 363 kts 281°
2026-05-09 02:55 -6.42129 4.59536 29246 ft 364 kts 281°
2026-05-09 02:55 -6.41642 4.57048 29113 ft 361 kts 281°
2026-05-09 02:55 -6.41156 4.54569 28972 ft 361 kts 281°
2026-05-09 02:56 -6.40672 4.52103 28797 ft 360 kts 280°
2026-05-09 02:56 -6.40184 4.49623 28634 ft 359 kts 281°
2026-05-09 02:56 -6.39702 4.47168 28532 ft 357 kts 280°
2026-05-09 02:56 -6.39222 4.44716 28384 ft 356 kts 281°
2026-05-09 02:57 -6.38743 4.42276 28240 ft 355 kts 281°
2026-05-09 02:57 -6.38266 4.39841 28118 ft 353 kts 281°
2026-05-09 02:57 -6.37798 4.37451 27967 ft 353 kts 281°
2026-05-09 02:57 -6.37322 4.35025 27807 ft 353 kts 281°
2026-05-09 02:58 -6.36848 4.32610 27694 ft 351 kts 281°
2026-05-09 02:58 -6.36376 4.30206 27569 ft 350 kts 281°
2026-05-09 02:58 -6.35903 4.27798 27392 ft 351 kts 281°
2026-05-09 02:58 -6.35432 4.25398 27285 ft 349 kts 281°
2026-05-09 02:59 -6.34965 4.23021 27192 ft 346 kts 281°
2026-05-09 02:59 -6.34497 4.20640 27030 ft 347 kts 281°
2026-05-09 02:59 -6.34028 4.18255 26882 ft 347 kts 281°
2026-05-09 02:59 -6.33563 4.15891 26798 ft 344 kts 281°
2026-05-09 03:00 -6.33099 4.13532 26670 ft 344 kts 281°
2026-05-09 03:00 -6.32634 4.11166 26494 ft 344 kts 281°
2026-05-09 03:00 -6.32175 4.08837 26420 ft 342 kts 282°
2026-05-09 03:00 -6.31716 4.06500 26288 ft 342 kts 282°
2026-05-09 03:01 -6.31253 4.04150 26133 ft 342 kts 282°
2026-05-09 03:01 -6.30793 4.01815 26072 ft 339 kts 282°
2026-05-09 03:01 -6.30337 3.99497 25960 ft 338 kts 282°
2026-05-09 03:01 -6.29879 3.97175 25789 ft 339 kts 282°
2026-05-09 03:02 -6.29423 3.94858 25716 ft 336 kts 282°
2026-05-09 03:02 -6.28967 3.92554 25612 ft 336 kts 282°
2026-05-09 03:02 -6.28512 3.90250 25456 ft 336 kts 282°
2026-05-09 03:02 -6.28057 3.87950 25373 ft 334 kts 282°
2026-05-09 03:03 -6.27606 3.85659 25272 ft 333 kts 282°
2026-05-09 03:03 -6.27155 3.83374 25149 ft 333 kts 282°
2026-05-09 03:03 -6.26711 3.81122 25063 ft 332 kts 282°
2026-05-09 03:03 -6.26263 3.78847 24942 ft 332 kts 282°
2026-05-09 03:04 -6.25815 3.76577 24836 ft 331 kts 283°
2026-05-09 03:04 -6.25368 3.74311 24743 ft 330 kts 282°
2026-05-09 03:04 -6.24921 3.72047 24643 ft 329 kts 282°
2026-05-09 03:04 -6.24475 3.69789 24539 ft 329 kts 283°
2026-05-09 03:05 -6.24031 3.67539 24450 ft 328 kts 283°
2026-05-09 03:05 -6.23587 3.65297 24357 ft 327 kts 283°
2026-05-09 03:05 -6.23142 3.63053 24260 ft 326 kts 283°
2026-05-09 03:05 -6.22700 3.60820 24162 ft 326 kts 283°
2026-05-09 03:06 -6.22257 3.58586 24069 ft 325 kts 283°
2026-05-09 03:06 -6.21822 3.56388 23976 ft 324 kts 283°
2026-05-09 03:06 -6.21383 3.54168 23895 ft 323 kts 283°
2026-05-09 03:06 -6.20946 3.51957 23822 ft 322 kts 283°
2026-05-09 03:07 -6.20509 3.49747 23711 ft 322 kts 283°
2026-05-09 03:07 -6.20072 3.47540 23632 ft 321 kts 283°
2026-05-09 03:07 -6.19636 3.45339 23527 ft 321 kts 283°
2026-05-09 03:07 -6.19200 3.43138 23438 ft 320 kts 283°
2026-05-09 03:08 -6.18765 3.40944 23339 ft 319 kts 283°
2026-05-09 03:08 -6.18333 3.38762 23238 ft 318 kts 283°
2026-05-09 03:08 -6.17901 3.36580 23118 ft 318 kts 283°
2026-05-09 03:08 -6.17468 3.34402 23033 ft 317 kts 283°
2026-05-09 03:09 -6.17038 3.32233 22927 ft 316 kts 283°
2026-05-09 03:09 -6.16609 3.30067 22827 ft 316 kts 283°
2026-05-09 03:09 -6.16180 3.27906 22724 ft 315 kts 283°
2026-05-09 03:09 -6.15751 3.25747 22625 ft 315 kts 283°
2026-05-09 03:10 -6.15329 3.23620 22544 ft 314 kts 283°
2026-05-09 03:10 -6.14903 3.21474 22449 ft 313 kts 283°
2026-05-09 03:10 -6.14477 3.19328 22346 ft 313 kts 283°
2026-05-09 03:10 -6.14053 3.17192 22277 ft 311 kts 283°
2026-05-09 03:11 -6.13629 3.15058 22175 ft 311 kts 283°
2026-05-09 03:11 -6.13204 3.12923 22063 ft 311 kts 283°
2026-05-09 03:11 -6.12780 3.10798 21987 ft 310 kts 283°
2026-05-09 03:11 -6.12357 3.08676 21898 ft 309 kts 283°
2026-05-09 03:12 -6.11937 3.06563 21807 ft 308 kts 283°
2026-05-09 03:12 -6.11517 3.04450 21708 ft 308 kts 283°
2026-05-09 03:12 -6.11099 3.02350 21673 ft 305 kts 283°
2026-05-09 03:12 -6.10683 3.00258 21559 ft 306 kts 283°
2026-05-09 03:13 -6.09851 2.96075 21406 ft 304 kts 283°
2026-05-09 03:13 -6.09436 2.93991 21299 ft 304 kts 283°
2026-05-09 03:13 -6.09022 2.91910 21214 ft 303 kts 283°
2026-05-09 03:14 -6.08610 2.89837 21152 ft 302 kts 283°
2026-05-09 03:14 -6.08198 2.87769 21068 ft 302 kts 283°
2026-05-09 03:14 -6.07783 2.85692 20902 ft 305 kts 283°
2026-05-09 03:14 -6.07371 2.83626 20801 ft 304 kts 283°
2026-05-09 03:15 -6.06959 2.81555 20775 ft 301 kts 283°
2026-05-09 03:15 -6.06546 2.79485 20661 ft 303 kts 283°
2026-05-09 03:15 -6.06133 2.77413 20596 ft 301 kts 283°
2026-05-09 03:15 -6.05722 2.75352 20512 ft 301 kts 283°
2026-05-09 03:16 -6.05313 2.73299 20444 ft 300 kts 283°
2026-05-09 03:16 -6.04901 2.71239 20351 ft 300 kts 283°
2026-05-09 03:16 -6.04489 2.69185 20275 ft 299 kts 283°
2026-05-09 03:16 -6.04082 2.67144 20226 ft 298 kts 283°
2026-05-09 03:17 -6.03673 2.65097 20130 ft 298 kts 283°
2026-05-09 03:17 -6.03266 2.63058 20076 ft 297 kts 283°
2026-05-09 03:17 -6.02860 2.61027 20007 ft 296 kts 283°
2026-05-09 03:17 -6.02457 2.59011 20042 ft 289 kts 283°
2026-05-09 03:18 -6.02065 2.57039 20012 ft 288 kts 283°
2026-05-09 03:18 -6.01674 2.55078 19833 ft 290 kts 283°
2026-05-09 03:18 -6.01279 2.53102 19818 ft 285 kts 283°
2026-05-09 03:18 -6.00892 2.51164 19804 ft 281 kts 283°
2026-05-09 03:19 -6.00507 2.49236 19645 ft 283 kts 283°
2026-05-09 03:19 -6.00116 2.47285 19459 ft 286 kts 283°
2026-05-09 03:19 -5.99726 2.45335 19396 ft 283 kts 283°
2026-05-09 03:19 -5.99341 2.43409 19355 ft 280 kts 283°
2026-05-09 03:20 -5.98957 2.41486 19219 ft 281 kts 283°
2026-05-09 03:20 -5.98569 2.39553 19066 ft 283 kts 283°
2026-05-09 03:20 -5.98182 2.37619 18995 ft 281 kts 283°
2026-05-09 03:20 -5.97798 2.35705 18942 ft 279 kts 283°
2026-05-09 03:21 -5.97414 2.33795 18818 ft 280 kts 283°
2026-05-09 03:21 -5.97028 2.31871 18698 ft 280 kts 283°
2026-05-09 03:21 -5.96651 2.29987 18621 ft 278 kts 283°
2026-05-09 03:21 -5.96271 2.28087 18549 ft 277 kts 283°
2026-05-09 03:22 -5.95892 2.26193 18460 ft 276 kts 283°
2026-05-09 03:22 -5.95511 2.24296 18365 ft 276 kts 283°
2026-05-09 03:22 -5.95134 2.22411 18286 ft 275 kts 283°
2026-05-09 03:22 -5.94757 2.20530 18182 ft 275 kts 283°
2026-05-09 03:23 -5.94380 2.18650 18068 ft 274 kts 283°
2026-05-09 03:23 -5.94003 2.16771 17967 ft 274 kts 283°
2026-05-09 03:23 -5.93627 2.14899 17860 ft 273 kts 283°
2026-05-09 03:23 -5.93250 2.13025 17751 ft 273 kts 283°
2026-05-09 03:24 -5.92873 2.11152 17629 ft 274 kts 283°
2026-05-09 03:24 -5.92497 2.09280 17542 ft 273 kts 283°
2026-05-09 03:24 -5.92123 2.07416 17463 ft 272 kts 283°
2026-05-09 03:24 -5.91753 2.05574 17334 ft 272 kts 283°
2026-05-09 03:25 -5.91380 2.03713 17262 ft 271 kts 283°
2026-05-09 03:25 -5.91008 2.01857 17164 ft 271 kts 283°
2026-05-09 03:25 -5.90634 1.99998 17051 ft 272 kts 283°
2026-05-09 03:25 -5.90260 1.98138 16956 ft 271 kts 283°
2026-05-09 03:26 -5.89888 1.96284 16909 ft 269 kts 283°
2026-05-09 03:26 -5.89518 1.94442 16815 ft 269 kts 283°
2026-05-09 03:26 -5.89146 1.92593 16714 ft 270 kts 283°
2026-05-09 03:26 -5.88775 1.90744 16595 ft 271 kts 283°
2026-05-09 03:27 -5.88527 1.89514 16532 ft 271 kts 283°
2026-05-09 03:27 -5.88156 1.87669 16510 ft 268 kts 283°
2026-05-09 03:27 -5.87787 1.85837 16441 ft 267 kts 283°
2026-05-09 03:27 -5.87416 1.84001 16311 ft 269 kts 284°
2026-05-09 03:28 -5.87043 1.82153 16190 ft 270 kts 284°
2026-05-09 03:28 -5.86670 1.80299 16137 ft 269 kts 284°
2026-05-09 03:28 -5.86301 1.78465 16104 ft 267 kts 283°
2026-05-09 03:28 -5.85934 1.76643 16028 ft 266 kts 283°
2026-05-09 03:29 -5.85567 1.74816 15919 ft 267 kts 283°
2026-05-09 03:29 -5.85199 1.72987 15836 ft 268 kts 283°
2026-05-09 03:29 -5.84830 1.71158 15771 ft 267 kts 283°
2026-05-09 03:29 -5.84463 1.69335 15739 ft 265 kts 283°
2026-05-09 03:30 -5.84104 1.67550 15677 ft 264 kts 283°
2026-05-09 03:30 -5.83738 1.65731 15570 ft 266 kts 284°
2026-05-09 03:30 -5.83368 1.63905 15471 ft 267 kts 283°
2026-05-09 03:30 -5.83003 1.62086 15435 ft 265 kts 284°
2026-05-09 03:31 -5.82636 1.60271 15357 ft 266 kts 283°
2026-05-09 03:31 -5.82269 1.58454 15299 ft 264 kts 283°
2026-05-09 03:31 -5.81906 1.56653 15261 ft 263 kts 284°
2026-05-09 03:31 -5.81539 1.54835 15106 ft 268 kts 284°
2026-05-09 03:32 -5.81168 1.53003 15049 ft 266 kts 283°
2026-05-09 03:32 -5.80802 1.51190 15063 ft 263 kts 284°
2026-05-09 03:32 -5.80438 1.49390 14982 ft 264 kts 284°
2026-05-09 03:32 -5.80072 1.47584 14923 ft 263 kts 283°
2026-05-09 03:33 -5.79711 1.45791 14910 ft 261 kts 284°
2026-05-09 03:33 -5.79352 1.44014 14799 ft 264 kts 284°
2026-05-09 03:33 -5.78985 1.42202 14706 ft 265 kts 284°
2026-05-09 03:33 -5.78620 1.40398 14702 ft 262 kts 283°
2026-05-09 03:34 -5.78261 1.38619 14707 ft 259 kts 283°
2026-05-09 03:34 -5.77903 1.36846 14619 ft 260 kts 283°
2026-05-09 03:34 -5.77541 1.35054 14516 ft 262 kts 284°
2026-05-09 03:34 -5.77177 1.33257 14454 ft 262 kts 284°
2026-05-09 03:35 -5.76815 1.31465 14404 ft 262 kts 284°
2026-05-09 03:35 -5.76451 1.29668 14353 ft 261 kts 283°
2026-05-09 03:35 -5.76091 1.27888 14344 ft 259 kts 284°
2026-05-09 03:35 -5.75732 1.26107 14222 ft 263 kts 284°
2026-05-09 03:36 -5.75363 1.24290 14066 ft 267 kts 284°
2026-05-09 03:36 -5.74994 1.22471 14118 ft 262 kts 284°
2026-05-09 03:36 -5.74636 1.20697 14166 ft 257 kts 284°
2026-05-09 03:36 -5.74276 1.18922 14030 ft 262 kts 284°
2026-05-09 03:37 -5.73916 1.17149 13961 ft 262 kts 284°
2026-05-09 03:37 -5.73557 1.15368 13970 ft 259 kts 284°
2026-05-09 03:37 -5.73197 1.13592 13900 ft 260 kts 284°
2026-05-09 03:37 -5.72830 1.11792 13901 ft 258 kts 284°
2026-05-09 03:38 -5.72481 1.10064 13901 ft 256 kts 284°
2026-05-09 03:38 -5.72124 1.08308 13811 ft 258 kts 284°
2026-05-09 03:38 -5.71766 1.06546 13790 ft 256 kts 284°
2026-05-09 03:38 -5.71413 1.04800 13790 ft 254 kts 284°
2026-05-09 03:39 -5.71057 1.03047 13626 ft 258 kts 284°
2026-05-09 03:39 -5.70693 1.01264 13472 ft 262 kts 284°
2026-05-09 03:39 -5.70332 0.99479 13495 ft 258 kts 284°
2026-05-09 03:39 -5.69979 0.97727 13522 ft 256 kts 284°
2026-05-09 03:40 -5.69620 0.95960 13367 ft 261 kts 284°
2026-05-09 03:40 -5.69254 0.94160 13219 ft 264 kts 284°
2026-05-09 03:40 -5.68893 0.92384 13255 ft 261 kts 284°
2026-05-09 03:40 -5.68533 0.90613 13281 ft 257 kts 284°
2026-05-09 03:41 -5.68178 0.88860 13270 ft 256 kts 285°
2026-05-09 03:41 -5.67819 0.87098 13171 ft 258 kts 284°
2026-05-09 03:41 -5.67461 0.85331 13134 ft 258 kts 285°
2026-05-09 03:41 -5.67101 0.83561 13063 ft 259 kts 285°
2026-05-09 03:42 -5.66741 0.81795 13066 ft 257 kts 284°
2026-05-09 03:42 -5.66388 0.80052 13117 ft 253 kts 284°
2026-05-09 03:42 -5.66036 0.78318 13008 ft 256 kts 284°
2026-05-09 03:42 -5.65677 0.76556 12899 ft 258 kts 285°
2026-05-09 03:43 -5.65316 0.74787 12863 ft 257 kts 284°
2026-05-09 03:43 -5.64962 0.73042 12892 ft 254 kts 285°
2026-05-09 03:43 -5.64604 0.71286 12754 ft 259 kts 285°
2026-05-09 03:43 -5.64242 0.69515 12706 ft 258 kts 284°
2026-05-09 03:44 -5.63887 0.67768 12804 ft 252 kts 285°
2026-05-09 03:44 -5.63535 0.66031 12668 ft 258 kts 285°
2026-05-09 03:44 -5.63172 0.64257 12550 ft 260 kts 285°
2026-05-09 03:44 -5.62816 0.62508 12570 ft 257 kts 285°
2026-05-09 03:45 -5.62459 0.60753 12542 ft 257 kts 285°
2026-05-09 03:45 -5.62097 0.58984 12449 ft 259 kts 284°
2026-05-09 03:45 -5.61739 0.57225 12514 ft 254 kts 284°
2026-05-09 03:45 -5.61390 0.55501 12539 ft 251 kts 285°
2026-05-09 03:46 -5.61036 0.53764 12362 ft 258 kts 285°
2026-05-09 03:46 -5.60670 0.51983 12244 ft 260 kts 285°
2026-05-09 03:46 -5.60310 0.50220 12355 ft 253 kts 284°
2026-05-09 03:46 -5.59965 0.48525 12432 ft 249 kts 284°
2026-05-09 03:47 -5.59616 0.46813 12319 ft 253 kts 284°
2026-05-09 03:47 -5.59261 0.45071 12240 ft 255 kts 284°
2026-05-09 03:47 -5.58907 0.43332 12208 ft 254 kts 284°
2026-05-09 03:47 -5.58552 0.41594 12166 ft 255 kts 285°
2026-05-09 03:48 -5.58194 0.39847 12088 ft 256 kts 285°
2026-05-09 03:48 -5.57837 0.38102 12111 ft 253 kts 285°
2026-05-09 03:48 -5.57489 0.36392 12154 ft 249 kts 285°
2026-05-09 03:48 -5.57137 0.34671 12007 ft 255 kts 285°
2026-05-09 03:49 -5.56774 0.32907 11873 ft 259 kts 285°
2026-05-09 03:49 -5.56415 0.31153 11954 ft 253 kts 285°
2026-05-09 03:49 -5.56068 0.29446 12040 ft 248 kts 285°
2026-05-09 03:49 -5.55718 0.27740 11900 ft 253 kts 285°
2026-05-09 03:50 -5.55359 0.25997 11816 ft 255 kts 284°
2026-05-09 03:50 -5.55010 0.24277 11909 ft 249 kts 285°
2026-05-09 03:50 -5.54660 0.22570 11831 ft 251 kts 286°
2026-05-09 03:50 -5.54300 0.20831 11675 ft 256 kts 284°
2026-05-09 03:51 -5.53946 0.19097 11765 ft 250 kts 285°
2026-05-09 03:51 -5.53600 0.17399 11803 ft 248 kts 285°
2026-05-09 03:51 -5.53252 0.15713 11694 ft 252 kts 285°
2026-05-09 03:51 -5.52899 0.13996 11715 ft 250 kts 284°
2026-05-09 03:52 -5.52552 0.12297 11738 ft 247 kts 285°
2026-05-09 03:52 -5.52197 0.10585 11556 ft 254 kts 285°
2026-05-09 03:52 -5.51831 0.08827 11471 ft 257 kts 285°
2026-05-09 03:52 -5.51474 0.07096 11583 ft 249 kts 284°
2026-05-09 03:53 -5.51130 0.05408 11638 ft 246 kts 285°
2026-05-09 03:53 -5.50781 0.03707 11483 ft 253 kts 285°
2026-05-09 03:53 -5.50423 0.01956 11348 ft 257 kts 286°
2026-05-09 03:53 -5.50068 0.00202 11376 ft 255 kts 286°
2026-05-09 03:54 -5.49681 -0.01514 11427 ft 251 kts 288°
2026-05-09 03:54 -5.49269 -0.03209 11417 ft 249 kts 287°
2026-05-09 03:54 -5.48856 -0.04900 11400 ft 249 kts 288°
2026-05-09 03:54 -5.48437 -0.06592 11367 ft 249 kts 287°
2026-05-09 03:55 -5.48025 -0.08272 11390 ft 247 kts 287°
2026-05-09 03:55 -5.47613 -0.09951 11274 ft 251 kts 288°
2026-05-09 03:55 -5.47191 -0.11645 11158 ft 255 kts 288°
2026-05-09 03:55 -5.46764 -0.13361 11219 ft 250 kts 287°
2026-05-09 03:56 -5.46355 -0.15028 11361 ft 243 kts 287°
2026-05-09 03:56 -5.45948 -0.16679 11279 ft 246 kts 287°
2026-05-09 03:56 -5.45529 -0.18378 11111 ft 254 kts 288°
2026-05-09 03:56 -5.45103 -0.20094 11138 ft 251 kts 287°
2026-05-09 03:57 -5.44689 -0.21775 11246 ft 245 kts 287°
2026-05-09 03:57 -5.44280 -0.23433 11231 ft 245 kts 288°
2026-05-09 03:57 -5.43862 -0.25127 11019 ft 255 kts 288°
2026-05-09 03:57 -5.43432 -0.26857 10997 ft 254 kts 288°
2026-05-09 03:58 -5.43013 -0.28549 11152 ft 245 kts 288°
2026-05-09 03:58 -5.42613 -0.30174 11169 ft 243 kts 287°
2026-05-09 03:58 -5.42202 -0.31849 10975 ft 253 kts 289°
2026-05-09 03:58 -5.41769 -0.33582 10883 ft 256 kts 287°
2026-05-09 03:59 -5.41350 -0.35283 11077 ft 246 kts 288°
2026-05-09 03:59 -5.40942 -0.36941 11067 ft 246 kts 289°
2026-05-09 03:59 -5.40520 -0.38635 10865 ft 255 kts 289°
2026-05-09 03:59 -5.40090 -0.40367 10828 ft 255 kts 289°
2026-05-09 04:00 -5.39668 -0.42070 10966 ft 246 kts 287°
2026-05-09 04:00 -5.39264 -0.43719 11032 ft 242 kts 288°
2026-05-09 04:00 -5.38855 -0.45374 10906 ft 248 kts 289°
2026-05-09 04:00 -5.38435 -0.47069 10787 ft 251 kts 288°
2026-05-09 04:01 -5.38010 -0.48780 10770 ft 252 kts 289°
2026-05-09 04:01 -5.37593 -0.50460 10868 ft 246 kts 288°
2026-05-09 04:01 -5.37181 -0.52126 10823 ft 247 kts 288°
2026-05-09 04:01 -5.36765 -0.53803 10818 ft 246 kts 287°
2026-05-09 04:02 -5.36356 -0.55461 10853 ft 244 kts 287°
2026-05-09 04:02 -5.35946 -0.57116 10828 ft 245 kts 287°
2026-05-09 04:02 -5.35539 -0.58759 10771 ft 247 kts 288°
2026-05-09 04:02 -5.35124 -0.60439 10718 ft 249 kts 289°
2026-05-09 04:03 -5.34702 -0.62132 10687 ft 249 kts 288°
2026-05-09 04:03 -5.34287 -0.63817 10669 ft 250 kts 289°
2026-05-09 04:03 -5.33865 -0.65509 10633 ft 250 kts 288°
2026-05-09 04:03 -5.33449 -0.67188 10686 ft 246 kts 289°
2026-05-09 04:04 -5.33043 -0.68840 10691 ft 244 kts 288°
2026-05-09 04:04 -5.32629 -0.70517 10525 ft 252 kts 289°
2026-05-09 04:04 -5.32198 -0.72243 10423 ft 256 kts 289°
2026-05-09 04:04 -5.31773 -0.73955 10531 ft 249 kts 288°
2026-05-09 04:05 -5.31358 -0.75632 10576 ft 247 kts 289°
2026-05-09 04:05 -5.30942 -0.77297 10492 ft 251 kts 288°
2026-05-09 04:05 -5.30523 -0.78994 10499 ft 250 kts 289°
2026-05-09 04:05 -5.30102 -0.80686 10498 ft 249 kts 288°
2026-05-09 04:06 -5.29688 -0.82361 10534 ft 246 kts 288°
2026-05-09 04:06 -5.29275 -0.84024 10514 ft 246 kts 288°
2026-05-09 04:06 -5.28857 -0.85711 10409 ft 251 kts 288°
2026-05-09 04:06 -5.28432 -0.87418 10367 ft 252 kts 288°
2026-05-09 04:07 -5.28011 -0.89105 10485 ft 246 kts 288°
2026-05-09 04:07 -5.27606 -0.90754 10515 ft 243 kts 289°
2026-05-09 04:07 -5.27189 -0.92420 10388 ft 249 kts 288°
2026-05-09 04:07 -5.26769 -0.94111 10381 ft 249 kts 288°
2026-05-09 04:08 -5.26355 -0.95784 10449 ft 245 kts 288°
2026-05-09 04:08 -5.25945 -0.97435 10454 ft 244 kts 288°
2026-05-09 04:08 -5.25531 -0.99105 10376 ft 248 kts 288°
2026-05-09 04:08 -5.25109 -1.00798 10297 ft 251 kts 288°
2026-05-09 04:09 -5.24689 -1.02487 10351 ft 249 kts 288°
2026-05-09 04:09 -5.24271 -1.04167 10376 ft 247 kts 288°
2026-05-09 04:09 -5.23857 -1.05829 10396 ft 245 kts 288°
2026-05-09 04:09 -5.23444 -1.07498 10321 ft 249 kts 288°
2026-05-09 04:10 -5.23030 -1.09163 10298 ft 249 kts 288°
2026-05-09 04:10 -5.22613 -1.10845 10302 ft 248 kts 289°
2026-05-09 04:10 -5.22193 -1.12529 10276 ft 250 kts 289°
2026-05-09 04:10 -5.21771 -1.14222 10260 ft 250 kts 289°
2026-05-09 04:11 -5.21351 -1.15910 10258 ft 249 kts 288°
2026-05-09 04:11 -5.20931 -1.17590 10287 ft 247 kts 287°
2026-05-09 04:11 -5.20519 -1.19257 10279 ft 246 kts 287°
2026-05-09 04:11 -5.20103 -1.20926 10262 ft 246 kts 287°
2026-05-09 04:12 -5.19691 -1.22588 10272 ft 245 kts 288°
2026-05-09 04:12 -5.19278 -1.24257 10178 ft 250 kts 288°
2026-05-09 04:12 -5.18852 -1.25956 10140 ft 251 kts 288°
2026-05-09 04:12 -5.18430 -1.27641 10207 ft 246 kts 287°
2026-05-09 04:13 -5.18022 -1.29289 10280 ft 242 kts 288°
2026-05-09 04:13 -5.17611 -1.30940 10194 ft 246 kts 288°
2026-05-09 04:13 -5.17195 -1.32614 10152 ft 248 kts 288°
2026-05-09 04:13 -5.16776 -1.34298 10117 ft 249 kts 288°
2026-05-09 04:14 -5.16355 -1.35978 10179 ft 246 kts 287°
2026-05-09 04:14 -5.15945 -1.37628 10232 ft 243 kts 288°
2026-05-09 04:14 -5.15538 -1.39268 10106 ft 250 kts 288°
2026-05-09 04:14 -5.15111 -1.40975 10039 ft 252 kts 288°
2026-05-09 04:15 -5.14689 -1.42664 10165 ft 245 kts 287°
2026-05-09 04:15 -5.14283 -1.44305 10234 ft 241 kts 287°
2026-05-09 04:15 -5.13873 -1.45956 10084 ft 249 kts 288°
2026-05-09 04:15 -5.13588 -1.47091 9948 ft 255 kts 288°
2026-05-09 04:16 -5.13159 -1.48805 10065 ft 249 kts 288°
2026-05-09 04:16 -5.12746 -1.50465 10179 ft 243 kts 288°
2026-05-09 04:16 -5.12331 -1.52127 10063 ft 250 kts 288°
2026-05-09 04:16 -5.11902 -1.53838 9973 ft 254 kts 288°
2026-05-09 04:17 -5.11480 -1.55537 10104 ft 247 kts 289°
2026-05-09 04:17 -5.11068 -1.57182 10223 ft 240 kts 287°
2026-05-09 04:17 -5.10664 -1.58811 10179 ft 242 kts 287°
2026-05-09 04:17 -5.10251 -1.60471 10072 ft 247 kts 289°
2026-05-09 04:18 -5.09835 -1.62139 10053 ft 246 kts 288°
2026-05-09 04:18 -5.09417 -1.63810 10021 ft 247 kts 288°
2026-05-09 04:18 -5.09002 -1.65466 10037 ft 246 kts 288°
2026-05-09 04:18 -5.08586 -1.67126 10055 ft 244 kts 287°
2026-05-09 04:19 -5.08177 -1.68768 10113 ft 241 kts 287°
2026-05-09 04:19 -5.07772 -1.70395 10120 ft 241 kts 287°
2026-05-09 04:19 -5.07364 -1.72030 10088 ft 243 kts 287°
2026-05-09 04:19 -5.06953 -1.73674 10095 ft 242 kts 288°
2026-05-09 04:20 -5.06545 -1.75317 10058 ft 244 kts 289°
2026-05-09 04:20 -5.06124 -1.76988 9964 ft 247 kts 287°
2026-05-09 04:20 -5.05717 -1.78628 10000 ft 245 kts 289°
2026-05-09 04:20 -5.05299 -1.80287 9984 ft 245 kts 289°
2026-05-09 04:21 -5.04883 -1.81944 9966 ft 244 kts 287°
2026-05-09 04:21 -5.04476 -1.83587 10034 ft 241 kts 288°
2026-05-09 04:21 -5.03657 -1.86874 9900 ft 248 kts 289°
2026-05-09 04:22 -5.03227 -1.88575 9813 ft 252 kts 289°
2026-05-09 04:22 -5.02804 -1.90255 9982 ft 243 kts 288°
2026-05-09 04:22 -5.02403 -1.91875 10068 ft 239 kts 289°
2026-05-09 04:22 -5.01992 -1.93517 9914 ft 247 kts 289°
2026-05-09 04:23 -5.01568 -1.95205 9864 ft 249 kts 289°
2026-05-09 04:23 -5.01149 -1.96873 9950 ft 243 kts 288°
2026-05-09 04:23 -5.00750 -1.98478 10046 ft 239 kts 289°
2026-05-09 04:23 -5.00346 -2.00102 9958 ft 242 kts 288°
2026-05-09 04:24 -4.99931 -2.01764 9858 ft 247 kts 288°
2026-05-09 04:24 -4.99512 -2.03431 9870 ft 246 kts 289°
2026-05-09 04:24 -4.99095 -2.05082 9935 ft 241 kts 288°
2026-05-09 04:24 -4.98691 -2.06705 9969 ft 239 kts 288°
2026-05-09 04:25 -4.98280 -2.08348 9827 ft 247 kts 288°
2026-05-09 04:25 -4.97858 -2.10024 9854 ft 245 kts 288°
2026-05-09 04:25 -4.97450 -2.11659 10002 ft 238 kts 288°
2026-05-09 04:25 -4.97048 -2.13266 9986 ft 240 kts 288°
2026-05-09 04:26 -4.96635 -2.14910 9888 ft 245 kts 288°
2026-05-09 04:26 -4.96223 -2.16566 9898 ft 244 kts 289°
2026-05-09 04:26 -4.95807 -2.18218 9893 ft 244 kts 289°
2026-05-09 04:26 -4.95390 -2.19875 9859 ft 245 kts 288°
2026-05-09 04:27 -4.94983 -2.21505 9888 ft 244 kts 289°
2026-05-09 04:27 -4.94572 -2.23141 9914 ft 242 kts 288°
2026-05-09 04:27 -4.94161 -2.24786 9822 ft 246 kts 288°
2026-05-09 04:27 -4.93743 -2.26452 9792 ft 246 kts 288°
2026-05-09 04:28 -4.93323 -2.28127 9745 ft 249 kts 289°
2026-05-09 04:28 -4.92896 -2.29821 9733 ft 249 kts 289°
2026-05-09 04:28 -4.92482 -2.31473 9851 ft 244 kts 289°
2026-05-09 04:28 -4.92062 -2.33148 9818 ft 246 kts 289°
2026-05-09 04:29 -4.91648 -2.34792 9815 ft 246 kts 289°
2026-05-09 04:29 -4.91236 -2.36444 9863 ft 244 kts 289°
2026-05-09 04:29 -4.90818 -2.38101 9826 ft 245 kts 288°
2026-05-09 04:29 -4.90405 -2.39752 9855 ft 243 kts 288°
2026-05-09 04:30 -4.89992 -2.41405 9814 ft 246 kts 289°
2026-05-09 04:30 -4.89567 -2.43085 9769 ft 248 kts 289°
2026-05-09 04:30 -4.89148 -2.44754 9808 ft 245 kts 288°
2026-05-09 04:30 -4.88735 -2.46397 9872 ft 242 kts 288°
2026-05-09 04:31 -4.88324 -2.48037 9860 ft 243 kts 288°
2026-05-09 04:31 -4.87914 -2.49667 9804 ft 245 kts 288°
2026-05-09 04:31 -4.87497 -2.51329 9824 ft 244 kts 288°
2026-05-09 04:31 -4.87083 -2.52979 9804 ft 245 kts 289°
2026-05-09 04:32 -4.86665 -2.54635 9829 ft 243 kts 288°
2026-05-09 04:32 -4.86256 -2.56270 9858 ft 243 kts 289°
2026-05-09 04:32 -4.85835 -2.57937 9723 ft 249 kts 288°
2026-05-09 04:32 -4.85411 -2.59620 9765 ft 247 kts 289°
2026-05-09 04:33 -4.84996 -2.61269 9877 ft 241 kts 288°
2026-05-09 04:33 -4.84586 -2.62900 9873 ft 242 kts 288°
2026-05-09 04:33 -4.84172 -2.64551 9783 ft 247 kts 289°
2026-05-09 04:33 -4.83747 -2.66230 9761 ft 248 kts 288°
2026-05-09 04:34 -4.83331 -2.67892 9868 ft 243 kts 289°
2026-05-09 04:34 -4.82924 -2.69507 9878 ft 243 kts 289°
2026-05-09 04:34 -4.82505 -2.71163 9812 ft 247 kts 289°
2026-05-09 04:34 -4.82085 -2.72830 9844 ft 246 kts 289°
2026-05-09 04:35 -4.81671 -2.74478 9900 ft 243 kts 289°
2026-05-09 04:35 -4.81257 -2.76113 9922 ft 242 kts 288°
2026-05-09 04:35 -4.80845 -2.77751 9912 ft 242 kts 288°
2026-05-09 04:35 -4.80432 -2.79387 9924 ft 242 kts 289°
2026-05-09 04:36 -4.80018 -2.81028 9892 ft 244 kts 289°
2026-05-09 04:36 -4.79601 -2.82682 9869 ft 245 kts 289°
2026-05-09 04:36 -4.79184 -2.84332 9935 ft 242 kts 289°
2026-05-09 04:36 -4.78770 -2.85967 9928 ft 243 kts 289°
2026-05-09 04:37 -4.78355 -2.87610 9944 ft 242 kts 288°
2026-05-09 04:37 -4.77943 -2.89240 10000 ft 240 kts 288°
2026-05-09 04:37 -4.77532 -2.90858 9998 ft 240 kts 288°
2026-05-09 04:37 -4.77122 -2.92470 9948 ft 243 kts 289°
2026-05-09 04:38 -4.76707 -2.94110 9956 ft 242 kts 288°
2026-05-09 04:38 -4.76295 -2.95746 9958 ft 242 kts 289°
2026-05-09 04:38 -4.75885 -2.97384 9934 ft 244 kts 289°
2026-05-09 04:38 -4.75460 -2.99077 9755 ft 257 kts 289°
2026-05-09 04:39 -4.75075 -3.00858 9619 ft 264 kts 282°
2026-05-09 04:39 -4.74789 -3.02609 9776 ft 241 kts 290°
2026-05-09 04:39 -4.73954 -3.04032 8807 ft 250 kts 326°
2026-05-09 04:39 -4.72183 -3.04355 6025 ft 303 kts 30°
2026-05-09 04:40 -4.71401 -3.02339 2153 ft 382 kts 119°
2026-05-09 04:40 -4.73387 -3.01351 31 ft 185 kts 213°
2026-05-09 04:40 -4.74056 -3.01389 7 ft 19 kts 185°
2026-05-09 04:40 -4.74063 -3.01390 7 ft 0 kts 186°
2026-05-09 04:45 -4.74062 -3.01390 7 ft 0 kts 186°
2026-05-09 04:49 -4.74061 -3.01390 7 ft 0 kts 184°
2026-05-09 04:49 -4.74061 -3.01391 7 ft 0 kts 185°
2026-05-09 04:54 -4.74061 -3.01392 7 ft 0 kts 185°
2026-05-09 04:54 -4.74060 -3.01392 7 ft 0 kts 185°
2026-05-09 04:56 -4.74060 -3.01391 7 ft 0 kts 184°
2026-05-09 04:56 -4.74060 -3.01392 7 ft 0 kts 184°
2026-05-09 04:59 -4.74059 -3.01392 7 ft 0 kts 184°
2026-05-09 05:04 -4.74059 -3.01393 7 ft 0 kts 182°
2026-05-09 05:04 -4.74058 -3.01392 7 ft 0 kts 182°
2026-05-09 05:06 -4.74058 -3.01393 7 ft 0 kts 182°
2026-05-09 05:06 -4.74058 -3.01392 7 ft 0 kts 181°
2026-05-09 05:06 -4.74058 -3.01393 7 ft 0 kts 182°
2026-05-09 05:09 -4.74057 -3.01393 7 ft 0 kts 182°
2026-05-09 05:13 -4.74057 -3.01394 7 ft 0 kts 181°
2026-05-09 05:13 -4.74056 -3.01394 7 ft 0 kts 181°
2026-05-09 05:15 -4.74056 -3.01395 7 ft 0 kts 182°
2026-05-09 05:17 -4.74056 -3.01394 7 ft 0 kts 181°
2026-05-09 05:18 -4.74056 -3.01395 7 ft 0 kts 181°
2026-05-09 05:20 -4.74055 -3.01395 7 ft 0 kts 181°
2026-05-09 05:24 -4.74055 -3.01396 7 ft 0 kts 182°
2026-05-09 05:25 -4.74055 -3.01395 7 ft 0 kts 181°
2026-05-09 05:25 -4.74055 -3.01396 7 ft 0 kts 181°
2026-05-09 05:26 -4.74054 -3.01396 7 ft 0 kts 182°
2026-05-09 05:28 -4.74054 -3.01395 7 ft 0 kts 180°
2026-05-09 05:28 -4.74054 -3.01396 7 ft 0 kts 180°
2026-05-09 05:28 -4.74054 -3.01395 7 ft 0 kts 179°
2026-05-09 05:29 -4.74054 -3.01396 7 ft 0 kts 180°
2026-05-09 05:31 -4.74053 -3.01396 7 ft 0 kts 180°
2026-05-09 05:35 -4.74053 -3.01397 7 ft 0 kts 180°
2026-05-09 05:38 -4.74052 -3.01398 7 ft 0 kts 182°
2026-05-09 05:39 -4.74052 -3.01397 7 ft 0 kts 181°
2026-05-09 05:39 -4.74052 -3.01398 7 ft 0 kts 181°
2026-05-09 05:43 -4.74051 -3.01398 4 ft 0 kts 182°
2026-05-09 05:43 -4.74051 -3.01399 3 ft 0 kts 182°
2026-05-09 05:43 -4.74051 -3.01398 4 ft 0 kts 182°
2026-05-09 05:44 -4.74051 -3.01399 4 ft 0 kts 182°
2026-05-09 05:46 -4.74051 -3.01400 4 ft 0 kts 182°
2026-05-09 05:47 -4.74050 -3.01400 7 ft 0 kts 182°
2026-05-09 05:49 -4.74050 -3.01401 7 ft 0 kts 183°
2026-05-09 05:49 -4.74050 -3.01400 7 ft 0 kts 183°
2026-05-09 05:49 -4.74050 -3.01401 7 ft 0 kts 183°
2026-05-09 05:51 -4.74049 -3.01401 7 ft 0 kts 184°
2026-05-09 05:51 -4.74049 -3.01402 7 ft 0 kts 185°
2026-05-09 05:52 -4.74049 -3.01401 6 ft 0 kts 184°
2026-05-09 05:52 -4.74049 -3.01402 7 ft 0 kts 184°
2026-05-09 05:53 -4.74049 -3.01401 7 ft 0 kts 184°
2026-05-09 05:54 -4.74049 -3.01402 6 ft 0 kts 184°
2026-05-09 05:55 -4.74048 -3.01402 7 ft 0 kts 184°
2026-05-09 05:59 -4.74047 -3.01402 6 ft 0 kts 184°
2026-05-09 06:03 -4.74046 -3.01402 7 ft 0 kts 182°
2026-05-09 06:05 -4.74046 -3.01403 7 ft 0 kts 183°
2026-05-09 06:08 -4.74045 -3.01404 7 ft 0 kts 184°
2026-05-09 06:12 -4.74044 -3.01404 6 ft 0 kts 184°
2026-05-09 06:12 -4.74044 -3.01405 7 ft 0 kts 184°
2026-05-09 06:13 -4.74044 -3.01404 7 ft 0 kts 184°
2026-05-09 06:13 -4.74044 -3.01405 7 ft 0 kts 184°
2026-05-09 06:17 -4.74044 -3.01406 7 ft 0 kts 186°
2026-05-09 06:17 -4.74043 -3.01406 7 ft 0 kts 186°
2026-05-09 06:18 -4.74043 -3.01407 8 ft 0 kts 186°
2026-05-09 06:19 -4.74043 -3.01406 8 ft 0 kts 186°
2026-05-09 06:20 -4.74043 -3.01407 8 ft 0 kts 186°
2026-05-09 06:22 -4.74042 -3.01407 8 ft 0 kts 187°
2026-05-09 06:23 -4.74042 -3.01408 8 ft 0 kts 187°
2026-05-09 06:26 -4.74041 -3.01408 7 ft 0 kts 187°
2026-05-09 06:31 -4.74040 -3.01408 7 ft 0 kts 186°
2026-05-09 06:36 -4.74039 -3.01409 7 ft 0 kts 186°
2026-05-09 06:38 -4.74039 -3.01410 7 ft 0 kts 188°
2026-05-09 06:38 -4.74039 -3.01409 7 ft 0 kts 187°
2026-05-09 06:40 -4.74038 -3.01409 7 ft 0 kts 186°
2026-05-09 06:42 -4.74038 -3.01410 7 ft 0 kts 187°
2026-05-09 06:42 -4.74038 -3.01409 7 ft 0 kts 186°